n
Photo alatoire

;

Club ULM Alpes Mans'Ailes

Base ULM de Piacé (72)

Météo:

meteoblue

Données PiouPiou :  ICI

METAR (Le Mans):

METAR de LFRM (émis le dimanche 30 avril 2017 01:00 UTC):
LFRM 300100Z AUTO 10003KT 060V130 CAVOK 10/01 Q1006

Coordonées GPS :

Lattitude : 48° 16' 16" Nord
Longitude : 00° 06' 15" Est
Altitude : 305 ft (93 m)
[11hPa]

Le Président

     Mickaël RIBOT


  Pour tout renseignement sur les baptêmes; contactez M. LECOURT -> 06.83.16.36.73 <-

  ou posez votre question par mail : -> ICI <-


    A la Une    

Retours d'EXpérence ULM


La FFPLUM met à disposition les REX

Les REX sont anonymes et permettent à la fédération de cibler les problèmes rencontrés et étudier les accidents survenus.

Déclarez votre propre expérience au REX.

Consultez les fiches REX qui ont été validées et publiées.


Alpes Mans'Ailes
Copyright "Alpes Mans'Ailes" 2017, tous droits réservés
Il y a eu 281 visiteurs sur le site depuis le 25/04/207